DateTime,F1_A11,F1_S11,BsB_S11,BsG_S11,BsR_S11,BbsB_S11,BbsG_S11,BbsR_S11,BaB_A11,BaG_A11,BaR_A11,T_S11,U_S11,P_S11,T1_A11
2016-11-26T00:00:00Z,0000380,21000600,,,,,,,,,,26.4,00.0,0636.3,34.6
2016-11-26T00:01:00Z,0000380,21000600,,,,,,,,,,26.4,00.0,0636.3,34.6
2016-11-26T00:02:00Z,0000380,21000600,,,,,,,,,,26.4,00.0,0636.3,34.7
2016-11-26T00:03:00Z,0000380,61000600,,,,,,,,,,26.4,00.0,0636.3,34.7
2016-11-26T00:04:00Z,0000380,41000600,0000.08,-000.44,0000.17,-000.66,-000.07,0000.27,0000.15,-000.05,0000.06,26.4,00.0,0637.2,34.7
2016-11-26T00:05:00Z,0000380,01000600,-000.47,-000.19,-000.34,-000.67,-000.13,-000.05,0000.01,0000.24,-000.01,26.5,00.0,0637.3,34.7
2016-11-26T00:06:00Z,0000380,01000600,0000.37,-000.25,0000.56,0000.03,-000.08,0000.59,0000.01,-000.07,0000.08,26.5,00.0,0637.3,34.7
2016-11-26T00:07:00Z,0000380,01000600,0000.40,-000.00,0000.05,0000.45,0000.33,0000.30,-000.02,-000.04,0000.12,26.5,00.0,0637.3,34.6
2016-11-26T00:08:00Z,0000380,01000600,0000.64,0000.03,0000.13,0000.74,-000.12,0000.16,0000.07,0000.18,0000.03,26.5,00.0,0637.3,34.6
2016-11-26T00:09:00Z,0000380,01000600,0000.35,-000.09,0000.21,-000.44,-000.06,0000.05,0000.01,-000.22,-000.11,26.4,00.0,0637.3,34.6
2016-11-26T00:10:00Z,0000380,01000600,-000.88,0000.03,-000.12,0000.13,-000.06,0000.19,0000.01,0000.03,0000.15,26.4,00.0,0637.3,34.6
2016-11-26T00:11:00Z,0000380,01000600,-000.78,0000.73,0000.37,-000.21,-000.52,0000.13,0000.12,-000.00,-000.26,26.4,00.0,0637.2,34.6
2016-11-26T00:12:00Z,0000380,01000600,0000.97,0000.22,-000.21,0000.01,-000.00,0000.27,-000.13,-000.02,0000.16,26.3,00.0,0637.2,34.6
2016-11-26T00:13:00Z,0000380,01000600,-000.12,-000.43,-000.31,0000.01,0000.48,0000.11,0000.14,0000.12,-000.01,26.3,00.0,0637.2,34.6
2016-11-26T00:14:00Z,0000380,01000600,-000.26,-000.27,0000.39,-000.54,-000.56,0000.52,0000.05,-000.00,-000.05,26.3,00.0,0637.3,34.6
2016-11-26T00:15:00Z,0000380,01000600,-000.53,-000.11,0000.33,0000.19,-000.11,0000.40,-000.07,-000.01,-000.27,26.3,00.0,0637.3,34.6
2016-11-26T00:16:00Z,0000380,01000600,-000.65,0000.35,-000.13,-000.38,-000.17,-000.02,0000.02,-000.01,0000.18,26.3,00.0,0637.3,34.6
2016-11-26T00:17:00Z,0000380,01000600,-000.30,-000.29,0000.46,0000.06,0000.04,0000.41,-000.11,0000.01,0000.08,26.4,00.0,0637.3,34.7
2016-11-26T00:18:00Z,0000380,01000600,0000.50,-000.07,-000.03,-000.16,0000.09,0000.05,0000.04,0000.14,-000.02,26.4,00.0,0637.3,34.7
2016-11-26T00:19:00Z,0000380,01000600,-000.87,-000.15,-000.07,-000.36,0000.12,0000.58,0000.05,-000.20,-000.06,26.4,00.0,0637.3,34.7
2016-11-26T00:20:00Z,0000380,01000600,-000.62,0000.03,0000.09,-000.13,0000.12,0000.04,0000.01,0000.04,-000.05,26.4,00.0,0637.4,34.7
2016-11-26T00:21:00Z,0000380,01000600,0000.48,-000.56,-000.22,0000.21,0000.09,0000.03,-000.01,0000.10,0000.33,26.5,00.0,0637.4,34.7
2016-11-26T00:22:00Z,0000380,01000600,0000.52,0000.13,-000.42,-000.11,-000.28,-000.19,0000.02,0000.13,-000.21,26.5,00.0,0637.4,34.7
2016-11-26T00:23:00Z,0000380,01000600,-000.47,0000.10,0000.20,0000.70,-000.23,-000.31,0000.08,-000.01,0000.01,26.5,00.0,0637.4,34.7
2016-11-26T00:24:00Z,0000380,01000600,-000.76,0000.24,-000.22,-000.06,-000.24,-000.17,0000.08,0000.06,0000.29,26.5,00.0,0637.4,34.7
2016-11-26T00:25:00Z,0000380,01000600,0000.57,0000.07,0000.04,0000.55,-000.08,0000.03,-000.03,-000.04,-000.43,26.5,00.0,0637.4,34.6
2016-11-26T00:26:00Z,0000380,01000600,-000.49,0000.24,-000.21,0000.10,-000.04,-000.04,0000.13,0000.07,0000.55,26.4,00.0,0637.4,34.6
2016-11-26T00:27:00Z,0000380,01000600,-000.14,-000.53,-000.00,-000.00,0000.53,0000.13,-000.02,0000.05,-000.19,26.4,00.0,0637.4,34.6
2016-11-26T00:28:00Z,0000380,01000600,-000.94,-000.32,0000.15,0000.44,0000.17,0000.11,0000.21,0000.01,-000.21,26.4,00.0,0637.4,34.6
2016-11-26T00:29:00Z,0000380,01000600,0000.28,-000.15,0000.02,-000.20,-000.74,0000.62,-000.33,-000.19,-000.09,26.4,00.0,0637.5,34.6
2016-11-26T00:30:00Z,0000380,01000600,-000.67,0000.19,-000.11,-000.51,0000.11,0000.08,0000.10,-000.08,-000.27,26.4,00.0,0637.5,34.6
2016-11-26T00:31:00Z,0000380,01000600,0000.65,-000.06,0000.17,-000.03,-000.24,0000.44,0000.03,0000.15,0000.43,26.4,00.0,0637.5,34.7
2016-11-26T00:32:00Z,0000380,01000600,0000.61,-000.02,-000.23,-000.56,0000.16,0000.38,-000.14,-000.11,-000.02,26.5,00.0,0637.6,34.7
2016-11-26T00:33:00Z,0000380,01000600,-000.49,0000.57,0000.18,0001.55,-000.15,0000.41,0000.07,0000.04,0000.22,26.5,00.0,0637.6,34.7
2016-11-26T00:34:00Z,0000380,01000600,0000.13,-000.26,-000.47,-000.16,-000.11,0000.08,-000.09,0000.12,-000.09,26.5,00.0,0637.5,34.7
2016-11-26T00:35:00Z,0000380,01000600,-000.14,0000.04,-000.15,0000.16,-000.04,0000.05,0000.19,-000.06,0000.03,26.6,00.0,0637.5,34.7
2016-11-26T00:36:00Z,0000380,01000600,-000.94,0000.38,0000.14,-000.35,0000.01,0000.21,0000.08,0000.22,-000.12,26.6,00.0,0637.5,34.7
2016-11-26T00:37:00Z,0000380,01000600,0000.89,-000.27,-000.20,-000.48,0000.08,0000.13,-000.09,0000.00,0000.10,26.6,00.0,0637.5,34.7
2016-11-26T00:38:00Z,0000380,01000600,-000.52,0000.31,-000.28,-000.44,-000.35,-000.05,-000.02,0000.00,-000.01,26.6,00.0,0637.5,34.7
2016-11-26T00:39:00Z,0000380,01000600,-000.87,0000.12,0000.43,0000.64,-000.14,0000.14,0000.23,0000.06,0000.21,26.6,00.0,0637.5,34.7
2016-11-26T00:40:00Z,0000380,01000600,-000.49,0000.23,-000.23,-000.10,-000.08,-000.39,-000.27,-000.06,-000.20,26.6,00.0,0637.5,34.7
2016-11-26T00:41:00Z,0000380,01000600,0000.77,-000.53,0000.19,0000.38,-000.34,0000.22,0000.28,-000.09,-000.17,26.6,00.0,0637.5,34.6
2016-11-26T00:42:00Z,0000380,01000600,0000.54,0000.55,0000.26,-000.04,-000.19,0000.23,0000.08,-000.13,0000.01,26.6,00.0,0637.4,34.6
2016-11-26T00:43:00Z,0000380,01000600,0000.00,0000.08,-000.26,0000.54,-000.43,0000.07,0000.11,0000.10,0000.16,26.5,00.0,0637.4,34.6
2016-11-26T00:44:00Z,0000380,01000600,-001.05,-000.20,0000.20,-000.47,0000.05,0000.01,-000.02,0000.01,-000.43,26.5,00.0,0637.4,34.6
2016-11-26T00:45:00Z,0000380,01000600,-000.72,-000.40,-000.71,-000.79,-000.16,-000.13,-000.02,-000.08,0000.40,26.5,00.0,0637.5,34.6
2016-11-26T00:46:00Z,0000380,01000600,0000.38,0000.13,-000.28,-000.46,0000.08,0000.35,-000.06,0000.05,-000.09,26.6,00.0,0637.5,34.7
2016-11-26T00:47:00Z,0000380,01000600,-000.01,0000.65,0000.37,0000.03,-000.24,-000.06,-000.24,-000.04,-000.37,26.6,00.0,0637.6,34.7
2016-11-26T00:48:00Z,0000380,01000600,-000.92,0000.16,-000.09,0000.32,-000.25,0000.21,0000.15,0000.13,0000.32,26.6,00.0,0637.6,34.7
2016-11-26T00:49:00Z,0000380,01000600,-000.37,0000.29,0000.09,0000.06,-000.24,0000.39,0000.14,-000.10,0000.08,26.6,00.0,0637.6,34.7
2016-11-26T00:50:00Z,0000380,01000600,-000.55,-000.59,0000.18,-000.25,-000.18,0000.40,-000.19,0000.30,-000.18,26.6,00.0,0637.6,34.7
2016-11-26T00:51:00Z,0000380,01000600,0000.31,0000.06,0000.24,-000.31,-000.16,0000.23,0000.29,-000.13,0000.06,26.7,00.0,0637.6,34.7
2016-11-26T00:52:00Z,0000380,01000600,0000.14,0000.28,0000.03,0000.43,-000.12,0000.45,0000.02,0000.20,0000.36,26.6,00.0,0637.5,34.6
2016-11-26T00:53:00Z,0000380,01000600,0000.27,0000.21,-000.03,-000.05,-000.44,0000.23,0000.07,-000.23,-000.44,26.6,00.0,0637.5,34.6
2016-11-26T00:54:00Z,0000380,01000600,-000.21,-000.25,-000.53,0000.09,-000.53,-000.21,-000.19,0000.27,0000.20,26.6,00.0,0637.5,34.6
2016-11-26T00:55:00Z,0000380,01000600,-000.20,0000.35,-000.07,-000.53,0000.08,0000.02,0000.24,0000.00,0000.07,26.6,00.0,0637.5,34.6
2016-11-26T00:56:00Z,0000380,01000600,0000.05,-000.36,-000.04,-000.19,0000.35,0000.17,-000.06,-000.07,0000.21,26.6,00.0,0637.5,34.6
2016-11-26T00:57:00Z,0000380,41000600,,,,,,,,,,26.6,00.0,0637.4,34.6
2016-11-26T00:58:00Z,0000380,61000600,,,,,,,,,,26.5,00.0,0636.6,34.6
2016-11-26T00:59:00Z,0000380,21000600,,,,,,,,,,26.5,00.0,0636.6,34.6
2016-11-26T01:00:00Z,0000380,21000600,,,,,,,,,,26.5,00.0,0636.6,34.6
2016-11-26T01:01:00Z,0000380,21000600,,,,,,,,,,26.5,00.0,0636.6,34.6
2016-11-26T01:02:00Z,0000380,21000600,,,,,,,,,,26.5,00.0,0636.6,34.7
2016-11-26T01:03:00Z,0000380,61000600,,,,,,,,,,26.5,00.0,0636.6,34.7
2016-11-26T01:04:00Z,0000380,41000600,0001.58,-000.35,-000.11,0000.53,-000.05,0000.20,-000.19,-000.00,0000.05,26.6,00.0,0637.5,34.7
2016-11-26T01:05:00Z,0000380,01000600,0000.21,0000.22,0000.03,-000.33,-000.31,0000.00,0000.16,0000.23,0000.05,26.6,00.0,0637.6,34.7
2016-11-26T01:06:00Z,0000380,01000600,0001.28,0000.39,0000.01,-000.15,-000.12,0000.09,-000.14,0000.01,-000.02,26.7,00.0,0637.6,34.7
2016-11-26T01:07:00Z,0000380,01000600,-000.18,0000.05,0000.04,0000.22,-000.27,0000.42,-000.09,-000.03,0000.08,26.7,00.0,0637.6,34.7
2016-11-26T01:08:00Z,0000380,01000600,0000.47,-000.24,0000.09,0000.26,0000.13,-000.15,0000.10,-000.01,-000.07,26.7,00.0,0637.6,34.7
2016-11-26T01:09:00Z,0000380,01000600,0001.15,-000.35,-000.09,0000.42,-000.06,0000.07,0000.08,0000.06,0000.14,26.7,00.0,0637.6,34.6
2016-11-26T01:10:00Z,0000380,01000600,0001.17,0000.04,-000.13,0000.59,0000.04,-000.21,-000.02,-000.05,-000.24,26.6,00.0,0637.6,34.6
2016-11-26T01:11:00Z,0000380,01000600,0000.31,0000.18,-000.08,0000.10,0000.13,-000.16,0000.11,0000.18,0000.26,26.6,00.0,0637.6,34.6
2016-11-26T01:12:00Z,0000380,01000600,0000.54,-000.32,0000.00,-000.02,-000.17,0000.18,0000.13,-000.03,-000.16,26.6,00.0,0637.6,34.6
2016-11-26T01:13:00Z,0000380,01000600,-000.84,0000.41,-000.47,-000.43,-000.08,-000.35,-000.07,-000.03,-000.06,26.6,00.0,0637.6,34.6
2016-11-26T01:14:00Z,0000380,01000600,0000.15,-000.09,-000.30,0000.27,0000.08,-000.02,0000.03,-000.04,-000.10,26.6,00.0,0637.6,34.6
2016-11-26T01:15:00Z,0000380,01000600,0000.64,0000.15,-000.04,0000.79,-000.00,0000.18,0000.08,-000.05,0000.11,26.6,00.0,0637.6,34.6
2016-11-26T01:16:00Z,0000380,01000600,0000.07,0000.02,-000.25,-000.07,0000.27,0000.03,-000.30,-000.12,0000.07,26.6,00.0,0637.7,34.7
2016-11-26T01:17:00Z,0000380,01000600,0000.36,0000.15,0000.13,-000.25,0000.12,-000.13,0000.19,0000.19,-000.05,26.6,00.0,0637.7,34.7
2016-11-26T01:18:00Z,0000380,01000600,0000.02,-000.09,-000.19,-000.58,-000.27,0000.43,-000.04,0000.07,0000.27,26.6,00.0,0637.8,34.7
2016-11-26T01:19:00Z,0000380,01000600,0000.52,-000.43,0000.29,-000.08,-000.15,0000.01,-000.04,-000.10,-000.26,26.7,00.0,0637.8,34.7
2016-11-26T01:20:00Z,0000380,01000600,0000.05,0000.10,-000.13,-000.11,-000.13,0000.02,0000.26,0000.30,0000.34,26.7,00.0,0637.8,34.7
2016-11-26T01:21:00Z,0000380,01000600,0000.99,0000.26,0000.24,-000.06,-000.16,0000.19,-000.21,-000.04,0000.15,26.7,00.0,0637.8,34.7
2016-11-26T01:22:00Z,0000380,01010600,0000.17,-000.08,-000.26,0000.17,0000.15,-000.18,0000.14,0000.04,-000.01,26.7,00.0,0637.8,34.7
2016-11-26T01:23:00Z,0000380,01000600,0000.54,0000.12,-000.09,-000.05,-000.06,-000.17,-000.03,-000.02,-000.09,26.7,00.0,0637.8,34.7
2016-11-26T01:24:00Z,0000380,01000600,0000.03,-000.22,0000.04,0000.91,0000.16,0000.06,0000.01,-000.04,-000.17,26.7,00.0,0637.8,34.7
2016-11-26T01:25:00Z,0000380,01000600,-000.02,-000.01,-000.28,-000.27,0000.31,0000.20,-000.07,-000.03,0000.08,26.7,00.0,0637.8,34.6
2016-11-26T01:26:00Z,0000380,01000600,0000.39,-000.56,-000.14,0000.09,-000.00,0000.09,0000.05,0000.20,0000.14,26.6,00.0,0637.8,34.6
2016-11-26T01:27:00Z,0000380,01000600,0001.67,-000.11,-000.04,0000.07,-000.21,-000.11,-000.10,-000.12,-000.21,26.6,00.0,0637.9,34.6
2016-11-26T01:28:00Z,0000380,01000600,0000.68,0000.08,-000.02,-000.02,-000.16,-000.28,0000.12,0000.01,0000.07,26.6,00.0,0637.9,34.6
2016-11-26T01:29:00Z,0000380,01000600,0000.30,-000.35,0000.13,0000.35,0000.22,0000.46,-000.06,-000.04,-000.04,26.6,00.0,0638.0,34.6
2016-11-26T01:30:00Z,0000380,01000600,0000.58,0000.22,0000.07,0000.71,0000.06,-000.16,0000.01,-000.01,-000.02,26.6,00.0,0638.0,34.6
2016-11-26T01:31:00Z,0000380,01000600,0001.00,-001.03,-000.56,0000.23,0000.04,0000.13,-000.08,-000.14,-000.02,26.6,00.0,0638.0,34.7
2016-11-26T01:32:00Z,0000380,01000600,0000.65,-000.67,-000.38,0000.20,-000.02,0000.10,-000.12,0000.28,0000.31,26.6,00.0,0638.0,34.7
2016-11-26T01:33:00Z,0000380,01000600,0000.53,0000.08,-000.12,-000.54,-000.30,-000.15,0000.23,-000.09,-000.14,26.7,00.0,0638.0,34.7
2016-11-26T01:34:00Z,0000380,01000600,0000.53,-000.16,-000.26,0000.20,-000.15,-000.25,0000.00,0000.19,0000.22,26.7,00.0,0638.0,34.7
2016-11-26T01:35:00Z,0000380,01000600,0000.69,0000.07,0000.01,-000.27,0000.10,-000.17,-000.01,0000.10,-000.17,26.7,00.0,0637.9,34.7
2016-11-26T01:36:00Z,0000380,01000600,0001.14,-000.15,-000.12,-000.10,0000.39,-000.07,0000.05,-000.07,0000.17,26.7,00.0,0638.0,34.7
2016-11-26T01:37:00Z,0000380,01000600,0000.78,-000.11,-000.13,0000.04,0000.79,-000.22,-000.07,0000.20,0000.00,26.7,00.0,0638.0,34.6
2016-11-26T01:38:00Z,0000380,01000600,-000.35,0000.11,-000.49,-000.21,-000.22,-000.32,0000.08,-000.15,-000.04,26.7,00.0,0638.0,34.6
2016-11-26T01:39:00Z,0000380,01000600,0000.34,-000.10,-000.14,-000.03,-000.03,-000.15,-000.10,0000.13,0000.22,26.7,00.0,0638.0,34.6
2016-11-26T01:40:00Z,0000380,01000600,-000.29,0000.29,0000.03,0000.07,0000.14,0000.23,0000.15,-000.11,-000.13,26.7,00.0,0638.0,34.6
2016-11-26T01:41:00Z,0000380,01000600,0000.53,0000.26,-000.41,0000.00,-000.01,-000.25,-000.03,0000.18,-000.00,26.7,00.0,0638.0,34.6
2016-11-26T01:42:00Z,0000380,01000600,0000.96,0000.36,-000.19,0000.13,0000.32,0000.09,0000.05,-000.24,-000.11,26.6,00.0,0637.9,34.6
2016-11-26T01:43:00Z,0000380,01000600,0000.70,0000.10,-000.19,-000.06,-000.29,0000.29,0000.28,0000.01,-000.15,26.6,00.0,0638.0,34.6
2016-11-26T01:44:00Z,0000380,01000600,0000.74,-000.10,-000.13,0000.24,0000.44,-000.02,-000.18,0000.01,0000.08,26.6,00.0,0638.0,34.6
2016-11-26T01:45:00Z,0000380,01000600,-000.08,-000.31,0000.21,0000.39,-000.36,0000.20,0000.00,-000.05,-000.03,26.6,00.0,0638.0,34.6
2016-11-26T01:46:00Z,0000380,01000600,0000.31,0000.62,-000.10,0000.03,0000.02,0000.53,0000.03,-000.02,0000.17,26.6,00.0,0638.0,34.7
2016-11-26T01:47:00Z,0000380,01000600,0000.43,-000.50,0000.40,0000.23,-000.04,0000.04,-000.09,0000.06,0000.03,26.7,00.0,0638.0,34.7
2016-11-26T01:48:00Z,0000380,01000600,0000.19,0000.15,-000.30,-000.10,0000.25,-000.42,0000.04,-000.02,-000.11,26.7,00.0,0638.0,34.7
2016-11-26T01:49:00Z,0000380,01000600,0000.30,0000.01,0000.01,0000.01,-000.25,0000.06,0000.06,0000.11,0000.20,26.7,00.0,0638.0,34.7
2016-11-26T01:50:00Z,0000380,01000600,0000.23,-000.16,0000.09,0000.57,0000.22,0000.28,-000.05,-000.11,-000.11,26.8,00.0,0638.1,34.7
2016-11-26T01:51:00Z,0000380,01000600,-000.27,0000.07,0000.06,-000.07,-000.09,0000.27,0000.03,0000.07,0000.02,26.8,00.0,0638.1,34.7
2016-11-26T01:52:00Z,0000380,01000600,0000.34,-000.35,0000.71,-000.24,-000.15,0000.15,0000.04,0000.10,0000.31,26.9,00.0,0638.1,34.7
2016-11-26T01:53:00Z,0000380,01000600,0000.64,-000.43,-000.12,0000.19,0000.32,-000.12,0000.10,0000.19,-000.10,26.8,00.0,0638.0,34.7
2016-11-26T01:54:00Z,0000380,01000600,0000.51,-000.14,-000.20,-000.12,0000.11,-000.24,-000.00,-000.02,0000.01,26.8,00.0,0638.0,34.7
2016-11-26T01:55:00Z,0000380,01000600,-000.09,0000.23,-000.21,0000.51,0000.09,0000.12,0000.07,-000.06,0000.12,26.8,00.0,0638.0,34.7
2016-11-26T01:56:00Z,0000380,01000600,0001.22,-000.43,0000.41,-000.10,-000.36,0000.26,-000.07,-000.12,-000.18,26.8,00.0,0638.0,34.7
2016-11-26T01:57:00Z,0000380,41000600,,,,,,,,,,26.8,00.0,0638.0,34.7
2016-11-26T01:58:00Z,0000380,61000600,,,,,,,,,,26.8,00.0,0637.0,34.6
2016-11-26T01:59:00Z,0000380,21000600,,,,,,,,,,26.8,00.0,0637.1,34.6
2016-11-26T02:00:00Z,0000380,21000600,,,,,,,,,,26.8,00.0,0637.1,34.7
2016-11-26T02:01:00Z,0000380,21000600,,,,,,,,,,26.8,00.0,0637.1,34.7
2016-11-26T02:02:00Z,0000380,21000600,,,,,,,,,,26.8,00.0,0637.1,34.7
2016-11-26T02:03:00Z,0000380,61000600,,,,,,,,,,26.8,00.0,0637.1,34.7
2016-11-26T02:04:00Z,0000380,41000600,0000.55,0000.20,-000.00,0000.06,0000.15,0000.27,-000.14,0000.30,0000.22,26.9,00.0,0638.0,34.7
2016-11-26T02:05:00Z,0000380,01000600,0000.63,0000.35,-000.08,0000.06,-000.36,-000.11,0000.20,0000.04,-000.02,27.0,00.0,0638.1,34.7
2016-11-26T02:06:00Z,0000380,01000600,0001.05,-000.09,-000.12,0000.26,-000.13,0000.27,0000.10,0000.06,-000.20,27.0,00.0,0638.1,34.7
2016-11-26T02:07:00Z,0000380,01000600,0000.28,0000.64,-000.17,0000.63,-000.14,0000.24,-000.13,-000.17,0000.14,27.0,00.0,0638.1,34.7
2016-11-26T02:08:00Z,0000380,01000600,-000.65,0001.03,0000.41,0000.35,0000.15,0000.15,0000.02,0000.02,0000.22,27.0,00.0,0638.1,34.7
2016-11-26T02:09:00Z,0000380,01000600,0000.33,0000.54,0000.04,0000.24,-000.04,0000.50,0000.01,0000.13,-000.16,27.0,00.0,0638.1,34.7
2016-11-26T02:10:00Z,0000380,01000600,0000.02,0000.37,-000.25,0000.38,0000.22,0000.21,0000.07,0000.03,0000.22,26.9,00.0,0638.1,34.7
2016-11-26T02:11:00Z,0000380,01000600,0000.66,0000.52,0000.06,0000.43,-000.04,0000.06,0000.02,-000.10,-000.26,27.0,00.0,0638.1,34.7
2016-11-26T02:12:00Z,0000380,01000600,0000.13,0000.88,0000.04,0000.28,0000.46,0000.31,0000.09,0000.01,0000.12,26.9,00.0,0638.1,34.7
2016-11-26T02:13:00Z,0000380,01000600,0000.31,0000.75,0000.07,-000.53,-000.30,0000.38,-000.09,-000.11,-000.10,26.9,00.0,0638.1,34.6
2016-11-26T02:14:00Z,0000380,01000600,0000.82,0000.63,-000.31,0000.91,-000.08,-000.00,-000.17,-000.01,-000.16,26.9,00.0,0638.1,34.6
2016-11-26T02:15:00Z,0000380,01000600,0000.97,0000.55,0000.08,0000.37,-000.15,0000.15,0000.20,0000.13,0000.06,26.9,00.0,0638.1,34.7
2016-11-26T02:16:00Z,0000380,01000600,0000.62,0000.33,0000.23,0000.52,0000.23,0000.53,-000.16,0000.02,0000.32,27.0,00.0,0638.1,34.7
2016-11-26T02:17:00Z,0000380,01000600,0001.18,-000.43,-000.09,0000.96,0000.25,-000.21,0000.06,-000.03,-000.07,27.0,00.0,0638.1,34.7
2016-11-26T02:18:00Z,0000380,01000600,-000.26,0000.95,-000.13,0000.23,-000.29,-000.20,-000.02,0000.01,-000.10,27.0,00.0,0638.1,34.7
2016-11-26T02:19:00Z,0000380,01000600,0000.44,0001.04,-000.36,0000.89,0000.13,0000.08,0000.02,0000.06,0000.31,27.1,00.0,0638.1,34.7
2016-11-26T02:20:00Z,0000380,01000600,0000.05,0000.74,0000.23,0000.23,-000.06,0000.02,-000.03,-000.02,0000.01,27.1,00.0,0638.1,34.7
2016-11-26T02:21:00Z,0000380,01000600,0000.92,0000.85,0000.14,0000.86,0000.02,0000.59,0000.03,0000.06,-000.34,27.1,00.0,0638.2,34.7
2016-11-26T02:22:00Z,0000380,01000600,0001.67,0000.36,0000.03,0000.07,0000.01,0000.10,0000.03,-000.02,-000.01,27.0,00.0,0638.2,34.7
2016-11-26T02:23:00Z,0000380,01000600,0001.41,0000.53,0000.01,0000.88,-000.33,0000.28,0000.03,-000.07,0000.38,27.1,00.0,0638.2,34.7
2016-11-26T02:24:00Z,0000380,01000600,0000.08,0000.31,-000.21,0000.72,0000.49,0000.27,0000.06,0000.06,-000.14,27.1,00.0,0638.3,34.7
2016-11-26T02:25:00Z,0000380,01000600,0000.57,0000.36,0000.17,-000.09,0000.16,0000.01,-000.04,0000.14,-000.20,27.0,00.0,0638.3,34.7
2016-11-26T02:26:00Z,0000380,01000600,0000.66,0000.47,0000.01,0000.45,-000.02,0000.48,-000.02,-000.10,0000.09,27.0,00.0,0638.3,34.7
2016-11-26T02:27:00Z,0000380,01000600,0000.62,-000.05,-000.16,-000.50,-000.12,0000.14,0000.05,-000.00,0000.10,27.0,00.0,0638.3,34.7
2016-11-26T02:28:00Z,0000380,01000600,0000.25,0001.30,0000.17,0000.35,0000.46,0000.36,0000.09,-000.11,-000.14,27.0,00.0,0638.4,34.7
2016-11-26T02:29:00Z,0000380,01000600,0001.16,0001.18,-000.24,0000.12,-000.13,0000.08,-000.00,0000.00,0000.09,27.0,00.0,0638.4,34.7
2016-11-26T02:30:00Z,0000380,01000600,0000.22,-000.06,0000.01,0000.68,-000.21,0000.21,-000.02,0000.07,-000.26,27.1,00.0,0638.4,34.7
2016-11-26T02:31:00Z,0000380,01000600,0000.69,0001.32,0000.02,0000.51,0000.32,0000.17,0000.01,-000.06,0000.18,27.1,00.0,0638.4,34.7
2016-11-26T02:32:00Z,0000380,01000600,0000.14,0000.55,0000.40,0000.79,-000.41,0000.35,0000.00,-000.21,0000.02,27.1,00.0,0638.4,34.7
2016-11-26T02:33:00Z,0000380,01000600,0000.88,-000.34,0000.20,0000.34,0000.12,0000.55,0000.01,0000.24,0000.27,27.1,00.0,0638.4,34.7
2016-11-26T02:34:00Z,0000380,01000600,0001.18,0000.83,0000.09,0000.46,-000.10,0000.22,-000.07,0000.03,0000.02,27.1,00.0,0638.4,34.7
2016-11-26T02:35:00Z,0000380,01000600,0000.29,0000.07,0000.19,0000.75,-000.06,0000.44,-000.10,-000.06,-000.14,27.2,00.0,0638.4,34.7
2016-11-26T02:36:00Z,0000380,01000600,0001.03,0000.10,0000.03,0000.96,0000.11,-000.10,0000.12,0000.15,0000.12,27.2,00.0,0638.4,34.7
2016-11-26T02:37:00Z,0000380,01000600,-000.47,0000.62,0000.26,0000.38,-000.12,-000.05,-000.01,-000.02,0000.23,27.1,00.0,0638.4,34.7
2016-11-26T02:38:00Z,0000380,01000600,0000.95,0000.27,0000.40,0000.34,0000.31,0000.29,0000.00,0000.03,-000.27,27.1,00.0,0638.4,34.7
2016-11-26T02:39:00Z,0000380,01000600,0000.65,-000.43,-000.05,0000.55,-000.08,0000.20,0000.07,0000.10,-000.00,27.1,00.0,0638.4,34.7
2016-11-26T02:40:00Z,0000380,01000600,0000.18,0000.55,-000.11,0000.62,-000.48,0000.42,0000.01,-000.07,0000.05,27.1,00.0,0638.4,34.7
2016-11-26T02:41:00Z,0000380,01000600,0000.62,0000.74,0000.62,0001.08,-000.12,0000.49,-000.08,-000.12,0000.03,27.1,00.0,0638.5,34.7
2016-11-26T02:42:00Z,0000380,01000600,0000.45,0000.22,0000.08,0000.06,-000.41,-000.16,0000.02,-000.06,-000.17,27.1,00.0,0638.5,34.7
2016-11-26T02:43:00Z,0000380,01000600,0000.42,0000.61,0000.06,0000.04,-000.52,0000.18,0000.25,0000.08,0000.04,27.0,00.0,0638.5,34.6
2016-11-26T02:44:00Z,0000380,01000600,0000.87,0000.22,-000.21,-000.08,-000.07,0000.12,-000.31,0000.02,0000.03,27.0,00.0,0638.5,34.6
2016-11-26T02:45:00Z,0000380,01000600,0001.19,0000.74,0000.08,0000.56,-000.04,0000.51,0000.15,-000.11,-000.12,27.1,00.0,0638.5,34.7
2016-11-26T02:46:00Z,0000380,01000600,0000.66,0000.56,0000.26,0000.66,-000.01,0000.39,-000.08,0000.06,0000.00,27.1,00.0,0638.5,34.7
2016-11-26T02:47:00Z,0000380,01000600,0001.26,0000.16,0000.17,0000.76,0000.20,-000.20,0000.14,-000.03,0000.44,27.1,00.0,0638.5,34.7
2016-11-26T02:48:00Z,0000380,01000600,0000.55,0000.23,0000.01,0000.62,0000.25,0000.11,-000.10,0000.00,-000.36,27.2,00.0,0638.6,34.7
2016-11-26T02:49:00Z,0000380,01000600,0000.20,0000.37,-000.13,0000.40,-000.14,0000.09,0000.02,0000.09,0000.08,27.2,00.0,0638.6,34.7
2016-11-26T02:50:00Z,0000380,01000600,0000.03,-000.19,0000.13,0000.41,0000.34,-000.17,-000.05,0000.16,0000.13,27.2,00.0,0638.6,34.7
2016-11-26T02:51:00Z,0000380,01000600,0000.38,0000.26,-000.02,0000.02,-000.06,-000.00,-000.05,-000.08,-000.04,27.2,00.0,0638.6,34.7
2016-11-26T02:52:00Z,0000380,01000600,0001.06,0000.66,0000.00,0000.46,-000.08,0000.34,0000.14,0000.00,0000.21,27.2,00.0,0638.6,34.7
2016-11-26T02:53:00Z,0000380,01000600,0000.25,0000.18,-000.31,0000.63,-000.31,0000.43,0000.05,0000.07,-000.02,27.2,00.0,0638.6,34.7
2016-11-26T02:54:00Z,0000380,01000600,0000.77,0000.57,-000.17,0000.08,-000.02,0000.19,-000.07,-000.16,-000.03,27.2,00.0,0638.6,34.7
2016-11-26T02:55:00Z,0000380,01000600,0000.90,0000.35,0000.26,0000.40,-000.27,0000.05,-000.01,0000.12,-000.08,27.2,00.0,0638.6,34.7
2016-11-26T02:56:00Z,0000380,01000600,0000.07,0000.53,-000.15,0000.70,0000.40,-000.02,-000.15,0000.07,0000.11,27.1,00.0,0638.6,34.7
2016-11-26T02:57:00Z,0000380,41000600,,,,,,,,,,27.1,00.0,0638.5,34.7
2016-11-26T02:58:00Z,0000380,61000600,,,,,,,,,,27.0,00.0,0637.6,34.6
2016-11-26T02:59:00Z,0000380,21000600,,,,,,,,,,27.1,00.0,0637.6,34.6
2016-11-26T03:00:00Z,0000380,21000600,,,,,,,,,,27.1,00.0,0637.6,34.7
2016-11-26T03:01:00Z,0000380,21000600,,,,,,,,,,27.1,00.0,0637.5,34.7
2016-11-26T03:02:00Z,0000380,21000600,,,,,,,,,,27.1,00.0,0637.5,34.7
2016-11-26T03:03:00Z,0000380,61000600,,,,,,,,,,27.2,00.0,0637.6,34.7
2016-11-26T03:04:00Z,0000380,41000600,-000.11,-000.38,0000.08,-000.19,0000.23,0000.15,-000.10,-000.10,0000.03,27.2,00.0,0638.5,34.7
2016-11-26T03:05:00Z,0000380,01000600,0000.32,-000.56,0000.12,-000.51,0000.24,0000.26,0000.26,0000.08,0000.09,27.3,00.0,0638.6,34.7
2016-11-26T03:06:00Z,0000380,01000600,0000.49,-000.38,0000.79,0000.32,-000.03,0000.44,0000.05,0000.01,-000.22,27.3,00.0,0638.6,34.7
2016-11-26T03:07:00Z,0000380,01000600,-000.69,0000.06,0000.13,-000.01,-000.16,0000.05,-000.03,0000.13,0000.23,27.3,00.0,0638.6,34.7
2016-11-26T03:08:00Z,0000380,01000600,-000.31,0000.30,0000.63,0000.79,0000.10,-000.03,-000.11,-000.19,-000.41,27.3,00.0,0638.6,34.7
2016-11-26T03:09:00Z,0000380,01000600,-000.18,0000.07,0000.28,0000.18,0000.28,0000.35,0000.15,0000.15,-000.01,27.3,00.0,0638.6,34.7
2016-11-26T03:10:00Z,0000380,01000600,0000.37,0000.15,-000.08,0000.22,0000.33,0000.50,-000.05,0000.06,0000.24,27.2,00.0,0638.7,34.7
2016-11-26T03:11:00Z,0000380,01000600,0000.64,-000.19,0000.21,0000.18,-000.37,0000.65,0000.13,-000.13,0000.03,27.2,00.0,0638.6,34.7